Find Qianfan Jigui 02-11

NORAD ID: 61562 Int'l Des: 2024-185 Owner: YUANX Country: CN Constellation: spacesail operational
LEOCIRCULARPOLAR

現在のビュー

3D地球を読み込み中...

Qianfan Jigui 02-11について

説明を読み込み中...

次回通過

Passes for default location (London). Set your location on the main map for personalized predictions.

高度履歴

Loading altitude history...

軌道要素

1 61562U 24185L 26149.56094100 .00000094 00000-0 12628-3 0 9992
2 61562 88.9813 63.9538 0007957 290.9946 69.0353 13.51070443 90452
Epoch: May 29, 2026 • Age: 11 hours

現在のステータス

高度 1074.3 km
速度 7.32 km/s
衛星直下点 -27.68°S, 175.99°E
打ち上げ日 Oct 15, 2024
運用期間 1.6 years
タイプ internet

技術仕様

分類 Payload
質量 267.00 kg
乾燥質量 267.00 kg
総質量 267.00 kg
長さ 0.30 m
直径 3.00 m
スパン 10.00 m
形状 Box+pan
製造者 GESIH/SECM
バスタイプ Qianfan
フェーズステータス In Orbit
所有者/国 YUANX/CN

Most Searched